Warning: Javascript must be enabled to use all the features on this page!


Page Loading - Please Wait...

Click to hideNews Bulletins

Streamflow Measurements for the Nation


USGS 11313240 GRANT LINE CN NR TRACY CA


San Joaquin County, California
Hydrologic Unit Code 18040003
Latitude  37°49'12", Longitude 121°32'41" NAD83
Gage datum 0 feet above NAVD88
Output formats
HTML table with channel data
HTML table without channel data
Tab-separated data with channel data
Tab-separated data without channel data
Graph of data
Reselect output format
Meas.
Number
  Date       Time Time
Datum
Measurement
Used?
  Who Measuring
Agency
Stream
flow
(ft3/s)
Gage
Height
(ft)
GH
Change
(ft)
Meas.
Duration
(hr)
Meas.
Rated
  Control Flow
Adjust.
Code
 
9742021-10-07 09:51:37PSTYesNSOEDER/EDUBUSGS31704.09 Poor NONE
9732021-10-07 09:48:13PSTYesNSOEDER/EDUBUSGS32104.13 Poor NONE
9722021-10-07 09:44:56PSTYesNSOEDER/EDUBUSGS31404.16 Poor NONE
9712021-10-07 09:40:58PSTYesNSOEDER/EDUBUSGS31804.19 Poor NONE
9702021-10-07 09:37:49PSTYesNSOEDER/EDUBUSGS30104.23 Poor NONE
9692021-10-07 09:33:45PSTYesNSOEDER/EDUBUSGS31004.26 Poor NONE
9682021-08-12 09:47:16PSTYesNSOEDER/HRABUSGS-2265.83 Poor NONE
9672021-08-12 09:39:27PSTYesNSOEDER/HRABUSGS-6575.87 Poor NONE
9662021-08-12 09:33:43PSTYesNSOEDER/HRABUSGS-9495.90 Poor NONE
9652021-08-12 09:28:46PSTYesNSOEDER/HRABUSGS-12105.91 Poor NONE
9642021-08-12 09:23:30PSTYesNSOEDER/HRABUSGS-12805.92 Poor NONE
9632021-08-12 09:18:27PSTYesNSOEDER/HRABUSGS-16905.93 Poor NONE
9622021-06-03 10:14:14PSTYesNSOEDER/HRABUSGS-21604.11 Poor NONE
9612021-06-03 10:08:19PSTYesNSOEDER/HRABUSGS-22304.05 Poor NONE
9602021-06-03 10:02:51PSTYesNSOEDER/HRABUSGS-22904.00 Poor NONE
9592021-06-03 09:57:25PSTYesNSOEDER/HRABUSGS-22603.95 Poor NONE
9582021-06-03 09:51:31PSTYesNSOEDER/HRABUSGS-22603.89 Poor NONE
9572021-06-03 09:46:16PSTYesNSOEDER/HRABUSGS-22403.84 Poor NONE
9562021-03-23 10:39:59PSTYesNSOEDER, HRAUSGS-30604.68 Poor NONE
9552021-03-23 10:36:34PSTYesNSOEDER, HRAUSGS-30504.65 Poor NONE
9542021-03-23 10:32:35PSTYesNSOEDER, HRAUSGS-28904.64 Poor NONE
9532021-03-23 10:25:06PSTYesNSOEDER, HRAUSGS-27904.59 Poor NONE
9522021-03-23 10:15:15PSTYesNSOEDER, HRAUSGS-26104.53 Poor NONE
9512021-03-23 10:11:11PSTYesNSOEDER, HRAUSGS-24104.51 Poor NONE
9502021-01-14 11:56:19PSTYesHR/ NWSUSGS58503.03 Poor NONE
9492021-01-14 11:49:17PSTYesHR/ NWSUSGS60603.07 Poor NONE
9482021-01-14 11:42:14PSTYesHR/ NWSUSGS60703.21 Poor NONE
9472021-01-14 11:35:35PSTYesHR/ NWSUSGS59703.31 Poor NONE
9462021-01-14 11:29:08PSTYesHR/ NWSUSGS54503.39 Poor NONE
9452021-01-14 11:19:56PSTYesHR/ NWSUSGS53703.51 Poor NONE
9442020-11-03 11:42:22PSTYesHR/ NSUSGS40404.22 Poor NONE
9432020-11-03 11:36:34PSTYesHR/ NSUSGS40204.28 Poor NONE
9422020-11-03 11:30:32PSTYesHR/ NSUSGS39404.33 Poor NONE
9412020-11-03 11:24:34PSTYesHR/ NSUSGS40304.38 Poor NONE
9402020-11-03 11:18:25PSTYesHR/ NSUSGS40404.44 Poor NONE
9392020-11-03 11:13:22PSTYesHR/ NSUSGS41204.48 Poor NONE
9382020-06-04 13:47:53PSTYesNWS/HRUSGS-10902.52 Poor NONE
9372020-06-04 13:43:57PSTYesNWS/HRUSGS-8282.47 Poor NONE
9362020-06-04 13:38:52PSTYesNWS/HRUSGS-4082.41 Poor NONE
9352020-06-04 13:34:55PSTYesNWS/HRUSGS-1442.37 Poor NONE
9342020-06-04 13:30:33PSTYesNWS/HRUSGS3122.33 Poor NONE
9332020-06-04 13:26:13PSTYesNWS/HRUSGS6402.29 Poor NONE
9322020-05-06 14:26:12PSTNo
9312020-05-06 14:22:18PSTNo
9302020-05-06 14:18:44PSTNo
9292020-05-06 14:15PSTNo
9282020-05-06 14:11:26PSTNo
9272020-05-06 14:07:31PSTNo
9262020-05-06 09:25:54PSTYesNWS/HRUSGS59803.56 Poor NONE
9252020-05-06 09:21:58PSTYesNWS/HRUSGS63403.60 Poor NONE
9242020-05-06 09:17:28PSTYesNWS/HRUSGS56503.64 Poor NONE
9232020-05-06 09:13:19PSTYesNWS/HRUSGS60603.68 Poor NONE
9222020-05-06 09:09:14PSTYesNWS/HRUSGS61003.72 Poor NONE
9212020-05-06 09:04:59PSTYesNWS/HRUSGS59103.75 Poor NONE
9202020-01-29 12:14:07PSTYesNWS/ALCUSGS7234.38 Poor NONE
9192020-01-29 12:09:25PSTYesNWS/ALCUSGS2754.40 Poor NONE
9182020-01-29 12:05:24PSTYesNWS/ALCUSGS1164.41 Poor NONE
9172020-01-29 12:00:45PSTYesNWS/ALCUSGS-1734.42 Poor NONE
9162020-01-29 11:56:21PSTYesNWS/ALCUSGS-4854.43 Poor NONE
9152020-01-29 11:51:59PSTYesNWS/ALCUSGS-6964.44 Poor NONE
9142019-11-26 09:57:51PSTYesNS, ACUSGS46603.21 Poor NONE
9132019-11-26 09:54:33PSTYesNS, ACUSGS49003.23 Poor NONE
9122019-11-26 09:51:18PSTYesNS, ACUSGS49403.25 Poor NONE
9112019-11-26 09:48:02PSTYesNS, ACUSGS48903.27 Poor NONE
9102019-11-26 09:44:45PSTYesNS, ACUSGS48703.30 Poor NONE
9092019-11-26 09:41:19PSTYesNS, ACUSGS47003.32 Poor NONE
9082019-10-10 14:50:14PSTYesNWS/HRUSGS-15604.28 Poor NONE
9072019-10-10 14:47:03PSTYesNWS/HRUSGS-15504.25 Poor NONE
9062019-10-10 14:44:13PSTYesNWS/HRUSGS-13204.22 Poor NONE
9052019-10-10 14:41:01PSTYesNWS/HRUSGS-14604.19 Poor NONE
9042019-10-10 14:36:57PSTYesNWS/HRUSGS-15104.16 Poor NONE
9032019-10-10 14:32:06PSTYesNWS/HRUSGS-14104.11 Poor NONE
9022019-08-29 10:17:49PSTYesNS/TDUSGS41203.50 Good NONE
9012019-08-29 10:14:14PSTYesNS/TDUSGS42003.52 Good NONE
9002019-08-29 10:09:47PSTYesNS/TDUSGS41503.55 Good NONE
8992019-08-29 10:06:43PSTYesNS/TDUSGS40003.58 Good NONE
8982019-08-29 10:02:46PSTYesNS/TDUSGS40303.60 Good NONE
8972019-08-29 09:59:53PSTYesNS/TDUSGS41603.63 Good NONE
8962019-08-07 11:41:18PSTYesNS/TDUSGS1323.82 Unspecified NONE
8952019-08-07 11:37:48PSTYesNS/TDUSGS1373.82 Unspecified NONE
8942019-08-07 11:34:18PSTYesNS/TDUSGS1363.80 Unspecified NONE
8932019-08-07 11:29:33PSTYesNS/TDUSGS94.53.79 Unspecified NONE
8922019-08-07 11:25:24PSTYesNS/TDUSGS1613.77 Unspecified NONE
8912019-08-07 11:21:08PSTYesNS/TDUSGS1233.76 Unspecified NONE
8902019-06-19 09:02:41PSTYesNS/TDUSGS87906.20 Unspecified NONE
8892019-06-19 08:59:36PSTYesNS/TDUSGS89306.23 Unspecified NONE
8882019-06-19 08:56:18PSTYesNS/TDUSGS89706.27 Unspecified NONE
8872019-06-19 08:52:45PSTYesNS/TDUSGS86806.30 Unspecified NONE
8862019-06-19 08:47:30PSTYesNS/TDUSGS82906.34 Unspecified NONE
8852019-06-19 08:44:30PSTYesNS/TDUSGS81806.36 Unspecified NONE
8842019-04-11 09:45:16PSTYesNS/ACUSGS21506.18 Fair NONE
8832019-04-11 09:41:34PSTYesNS/ACUSGS19206.17 Fair NONE
8822019-04-11 09:38PSTYesNS/ACUSGS18806.16 Fair NONE
8812019-04-11 09:32:58PSTYesNS/ACUSGS17306.15 Fair NONE
8802019-04-11 09:27:46PSTYesNS/ACUSGS17006.14 Fair NONE
8792019-04-11 09:21:58PSTYesNS/ACUSGS14706.12 Fair NONE
8782019-03-05 13:28:17PSTYesNS/MPUSGS68104.52 Fair NONE
8772019-03-05 13:25:51PSTYesNS/MPUSGS64804.52 Fair NONE
8762019-03-05 13:23:31PSTYesNS/MPUSGS68304.50 Fair NONE
8752019-03-05 13:21:19PSTYesNS/MPUSGS68704.49 Fair NONE
8742019-03-05 10:43:52PSTYesNS/MPUSGS89104.60 Good NONE
8732019-03-05 10:40:23PSTYesNS/MPUSGS93404.63 Good NONE
8722019-03-05 10:35:46PSTYesNS/MPUSGS93204.64 Good NONE
8712019-03-05 10:31:43PSTYesNS/MPUSGS95804.66 Good NONE
8702019-03-05 10:28:02PSTYesNS/MPUSGS96804.68 Good NONE
8692019-03-05 10:24:51PSTYesNS/MPUSGS91004.70 Good NONE
8682019-03-05 10:21:37PSTYesNS/MPUSGS94504.72 Good NONE
8672019-03-05 10:18:12PSTYesNS/MPUSGS93904.73 Good NONE
8662019-02-06 13:20:28PSTNo
8652019-02-06 13:17:10PSTNo
8642019-01-31 12:51:32PSTYesJH/NSUSGS-39705.06 Fair NONE
8632019-01-31 12:46:11PSTYesJH/NSUSGS-36405.02 Fair NONE
8622019-01-31 12:40:34PSTYesJH/NSUSGS-50904.97 Fair NONE
8612019-01-31 12:34:52PSTYesJH/NSUSGS-45304.92 Fair NONE
8602019-01-31 12:28:28PSTYesJH/NSUSGS-42604.88 Fair NONE
8592019-01-31 12:22:03PSTYesJH/NSUSGS-37704.82 Fair NONE
8582019-01-31 12:17:13PSTYesJH/NSUSGS-38104.78 Fair NONE
8572019-01-31 12:13:31PSTYesJH/NSUSGS-37304.76 Fair NONE
8562019-01-31 12:07:36PSTYesJH/NSUSGS-41004.72 Fair NONE
8552019-01-31 12:03:58PSTYesJH/NSUSGS-41704.69 Fair NONE
8542019-01-31 12:00:07PSTYesJH/NSUSGS-36104.66 Fair NONE
8532018-09-25 09:24:14PSTYesMI, NS, TDUSGS33503.59 Fair NONE
8522018-09-25 09:19:54PSTYesMI, NS, TDUSGS34103.63 Fair NONE
8512018-09-25 09:13:49PSTYesMI, NS, TDUSGS33903.68 Fair NONE
8502018-09-25 09:10:33PSTYesMI, NS, TDUSGS34103.71 Fair NONE
8492018-09-25 09:06:18PSTYesMI, NS, TDUSGS35703.74 Fair NONE
8482018-09-25 09:02:45PSTYesMI, NS, TDUSGS37403.77 Fair NONE
8472018-08-07 13:52:27PSTYesNS/ACUSGS-8402.92 Poor NONE
8462018-08-07 13:47:56PSTYesNS/ACUSGS-10702.90 Good NONE
8452018-08-07 13:42:58PSTYesNS/ACUSGS-12202.88 Fair NONE
8442018-08-07 13:37:59PSTYesNS/ACUSGS-12602.85 Fair NONE
8432018-08-07 13:33:37PSTYesNS/ACUSGS-12302.82 Fair NONE
8422018-08-07 13:28:59PSTYesNS/ACUSGS-9262.82 Fair NONE
8412018-06-13 13:43:46PSTYesNS/MIUSGS23702.10 Fair NONE
8402018-06-13 13:37:56PSTYesNS/MIUSGS26002.12 Fair NONE
8392018-06-13 13:33:20PSTYesNS/MIUSGS26402.14 Fair NONE
8382018-06-13 13:28:52PSTYesNS/MIUSGS27702.16 Fair NONE
8372018-06-13 13:23:45PSTYesNS/MIUSGS29902.18 Fair NONE
8362018-06-13 13:19:01PSTYesNS/MIUSGS31402.21 Fair NONE
8352018-03-27 12:29:14PSTYesCH,BGUSGS-7394.64 Fair NONE
8342018-03-27 12:27:02PSTYesCH,BGUSGS-7164.62 Fair NONE
8332018-03-27 12:24:40PSTYesCH,BGUSGS-7114.60 Fair NONE
8322018-03-27 12:22:21PSTYesCH,BGUSGS-6594.58 Fair NONE
8312018-03-27 12:19:10PSTYesCH,BGUSGS-6644.56 Poor NONE
8302018-03-27 12:14:46PSTYesCH,BGUSGS-5004.52 Poor NONE
8242017-11-21 13:25:42PSTYesNS/RJUSGS28202.97 Good NONE
8232017-11-21 13:21:53PSTYesNS/RJUSGS29402.98 Good NONE
8222017-11-21 13:18:11PSTYesNS/RJUSGS29502.99 Good NONE
8212017-11-21 13:14:35PSTYesNS/RJUSGS30202.99 Good NONE
8202017-11-21 13:10:48PSTYesNS/RJUSGS29303.00 Good NONE
8192017-11-21 13:06:46PSTYesNS/RJUSGS29903.01 Good NONE
8182017-09-19 13:54:04PSTYesNWS,JBDUSGS8723.01 Good NONE
8172017-09-19 13:50:35PSTYesNWS,JBDUSGS10802.96 Good NONE
8162017-09-19 13:47:16PSTYesNWS,JBDUSGS15402.92 Good NONE
8152017-09-19 13:43:41PSTYesNWS,JBDUSGS19202.88 Good NONE
8142017-09-19 13:39:58PSTYesNWS,JBDUSGS23302.84 Good NONE
8132017-09-19 13:36:25PSTYesNWS,JBDUSGS24902.81 Good NONE
2017-07-26 13:24:23PSTNo
8112017-07-12 12:49:40PSTYesNS/BFUSGS73403.60 GoodVegetationModerateNONE
8102017-07-12 12:45:35PSTYesNS/BFUSGS79103.62 GoodVegetationModerateNONE
8092017-07-12 12:41:57PSTYesNS/BFUSGS82103.66 GoodVegetationModerateNONE
8082017-07-12 12:38:32PSTYesNS/BFUSGS76903.68 GoodVegetationModerateNONE
8072017-07-12 12:34:46PSTYesNS/BFUSGS73803.71 GoodVegetationModerateNONE
8062017-07-12 12:30:49PSTYesNS/BFUSGS76503.73 GoodVegetationModerateNONE
8052017-05-18 12:48:54PSTYesNWS/TVUSGS107005.11 Good NONE
8042017-05-18 12:43:32PSTYesNWS/TVUSGS103005.14 Good NONE
8032017-05-18 12:38:23PSTYesNWS/TVUSGS99105.17 Good NONE
8022017-05-18 12:33:44PSTYesNWS/TVUSGS103005.19 Good NONE
8012017-05-18 12:29:29PSTYesNWS/TVUSGS102005.21 Good NONE
8002017-05-18 12:25:19PSTYesNWS/TVUSGS107005.23 Good NONE
7992017-03-15 13:44:45PSTYesTV/NSUSGS158005.76 Fair NONE
7982017-03-15 13:39:13PSTYesTV/NSUSGS148005.79 Good NONE
7972017-03-15 13:33:24PSTYesTV/NSUSGS142005.82 Good NONE
7962017-03-15 13:28:04PSTYesTV/NSUSGS149005.85 Fair NONE
7952017-03-15 13:22:46PSTYesTV/NSUSGS141005.88 Good NONE
7942017-03-15 13:17:59PSTYesTV/NSUSGS144005.90 Good NONE
7932017-02-16 13:50PSTYesBS/WFUSGS165007.04 Unspecified NONE
7922017-02-16 13:45PSTYesBS/WFUSGS182007.07 Unspecified NONE
7912017-02-16 13:39PSTYesBS/WFUSGS176007.10 Unspecified NONE
7902017-02-16 13:33:30PSTYesBS/WFUSGS168007.12 Unspecified NONE
7892017-02-16 13:28:30PSTYesBS/WFUSGS175007.15 Unspecified NONE
7882017-02-16 13:23PSTYesBS/WFUSGS170007.18 Unspecified NONE
7872017-01-26 14:33:21PSTYesBS/WFUSGS74205.31 Good NONE
7862017-01-26 14:27:10PSTYesBS/WFUSGS70205.27 Good NONE
7852017-01-26 14:21:29PSTYesBS/WFUSGS70305.23 Good NONE
7842017-01-26 14:16:41PSTYesBS/WFUSGS71305.19 Good NONE
7832017-01-26 14:10:39PSTYesBS/WFUSGS65405.15 Good NONE
7822017-01-26 14:05:12PSTYesBS/WFUSGS72905.11 Good NONE
7812017-01-26 12:39:04PSTYesBS/WFUSGS83704.54 Good NONE
7802017-01-26 12:34:05PSTYesBS/WFUSGS84504.51 Good NONE
7792017-01-26 12:29:18PSTYesBS/WFUSGS82204.48 Good NONE
7782017-01-26 12:24:44PSTYesBS/WFUSGS89504.46 Good NONE
7772017-01-26 12:20:29PSTYesBS/WFUSGS83804.43 Good NONE
7762017-01-26 12:16:11PSTYesBS/WFUSGS83604.41 Good NONE
7752017-01-13 12:19:53PSTYesBS, NDUSGS89705.56 Good NONE
7742017-01-13 12:14:04PSTYesBS, NDUSGS81805.60 Good NONE
7732017-01-13 12:08:09PSTYesBS, NDUSGS86505.62 Good NONE
7722017-01-13 11:59:37PSTYesBS, NDUSGS90605.66 Good NONE
7712017-01-13 11:53:11PSTYesBS, NDUSGS91205.98 Good NONE
7702017-01-13 11:46:38PSTYesBS, NDUSGS79905.71 Good NONE
7692017-01-13 11:40:37PSTYesBS, NDUSGS93905.73 Good NONE
7682017-01-13 11:34:19PSTYesBS, NDUSGS96405.76 Good NONE
7672017-01-13 11:28:30PSTYesBS, NDUSGS91205.79 Good NONE
7662017-01-13 11:23PSTYesBS, NDUSGS85405.82 Good NONE
7652017-01-13 11:17:14PSTYesBS, NDUSGS9300 Good NONE
7642017-01-13 11:11:16PSTYesBS, NDUSGS96005.90 Good NONE
7632017-01-13 11:05:11PSTYesBS, NDUSGS92705.93 Good NONE
7622017-01-13 10:59:29PSTYesBS, NDUSGS88005.97 Good NONE
7612017-01-13 10:53:52PSTYesBS, NDUSGS91606.00 Good NONE
7602017-01-13 10:47:59PSTYesBS, NDUSGS81706.04 Good NONE
7592017-01-13 10:42:45PSTYesBS, NDUSGS89306.07 Good NONE
7582017-01-13 10:37:16PSTYesBS, NDUSGS88606.11 Good NONE
7572017-01-13 10:31:58PSTYesBS, NDUSGS89306.15 Good NONE
7562017-01-13 10:27:14PSTYesBS, NDUSGS85806.18 Good NONE
7552017-01-13 10:22:05PSTYesBS, NDUSGS79906.21 Good NONE
7542017-01-13 10:16:21PSTYesBS, NDUSGS81806.24 Good NONE
7532017-01-13 10:10:58PSTYesBS, NDUSGS81506.28 Good NONE
7522017-01-13 10:06:39PSTYesBS, NDUSGS83706.30 Good NONE
7512017-01-13 10:02:14PSTYesBS, NDUSGS79806.34 Good NONE
7502017-01-13 09:57:50PSTYesBS, NDUSGS74906.35 Good NONE
7492017-01-13 09:53:29PSTYesBS, NDUSGS75006.39 Good NONE
7482017-01-13 09:48:11PSTYesBS, NDUSGS75606.42 Good NONE
7472017-01-13 09:44:09PSTYesBS, NDUSGS71906.44 Good NONE
7462016-11-29 12:48:24PSTYesRPJ,NjdUSGS15402.75 Good NONE
7452016-11-29 12:41:38PSTYesRPJ,NjdUSGS16402.73 Good NONE
7442016-11-29 12:35:45PSTYesRPJ,NjdUSGS18802.72 Good NONE
7432016-11-29 12:30:55PSTYesRPJ,NjdUSGS20602.71 Good NONE
7422016-11-29 12:26:49PSTYesRPJ,NjdUSGS21802.70 Good NONE
7412016-11-29 12:22:03PSTYesRPJ,NjdUSGS23602.69 Good NONE
7402016-11-29 12:17:19PSTYesRPJ,NjdUSGS24302.69 Fair NONE
7392016-09-08 12:19:13PSTYesJB, NJDUSGS-6503.56 Poor NONE
7382016-09-08 12:13:51PSTYesJB, NJDUSGS-6133.54 Poor NONE
7372016-09-08 12:07:31PSTYesJB, NJDUSGS-6943.51 Poor NONE
7362016-09-08 12:00:32PSTYesJB, NJDUSGS-7203.48 Poor NONE
7352016-09-08 11:53:11PSTYesJB, NJDUSGS-5323.46 Poor NONE
7342016-09-08 11:46:50PSTYesJB, NJDUSGS-6103.44 Poor NONE
7332016-04-11 11:37:11PSTYesND, RJUSGS54605.00 Good NONE
7322016-04-11 11:30:17PSTYesND, RJUSGS50605.06 Good NONE
7312016-04-11 11:23:29PSTYesND, RJUSGS48505.11 Good NONE
7302016-04-11 11:14:34PSTYesND, RJUSGS43805.19 Good NONE
7292016-04-11 11:07:35PSTYesND, RJUSGS40005.24 Good NONE
7282016-04-11 10:59:16PSTYesND, RJUSGS33905.31 Good NONE
7272016-01-28 10:55:31PSTYesNJD/SPHUSGS8844.44 Unspecified NONE
7262016-01-28 10:50:30PSTYesNJD/SPHUSGS5914.44 Unspecified NONE
7252016-01-28 10:45:20PSTYesNJD/SPHUSGS5584.43 Unspecified NONE
7242016-01-28 10:38:49PSTYesNJD/SPHUSGS4064.42 Unspecified NONE
7232016-01-28 10:33:31PSTYesNJD/SPHUSGS292 Unspecified NONE
7222016-01-28 10:28:51PSTYesNJD/SPHUSGS2794.40 Unspecified NONE
7212016-01-28 10:23:08PSTYesNJD/SPHUSGS-1564.39 Unspecified NONE
7202016-01-28 10:18:09PSTYesNJD/SPHUSGS-2764.37 Unspecified NONE
7192015-12-28 15:11:54PSTYesND, SHUSGS11003.19 Good NONE
7182015-12-28 15:05:32PSTYesND, SHUSGS13903.16 Good NONE
7172015-12-28 14:59:35PSTYesND, SHUSGS16303.14 Good NONE
7162015-12-28 14:53:20PSTYesND, SHUSGS19203.13 Good NONE
7152015-12-28 14:47:03PSTYesND, SHUSGS20603.11 Good NONE
7142015-12-28 14:41:06PSTYesND, SHUSGS23903.10 Good NONE
7132015-12-28 14:35:15PSTYesND, SHUSGS25303.10 Good NONE
7122015-12-28 14:29:02PSTYesND, SHUSGS27003.10 Good NONE
7112015-12-28 14:22:12PSTYesND, SHUSGS27803.11 Good NONE
7102015-12-28 14:13:59PSTYesND, SHUSGS28503.12 Good NONE
7092015-12-28 14:06:03PSTYesND, SHUSGS30203.14 Good NONE
7082015-12-28 13:59:43PSTYesND, SHUSGS31503.15 Good NONE
7072015-12-28 13:53:29PSTYesND, SHUSGS30303.17 Good NONE
7062015-12-28 13:45:57PSTYesND, SHUSGS31303.20 Good NONE
7052015-12-28 13:39:20PSTYesND, SHUSGS34903.23 Good NONE
7042015-12-28 13:32:36PSTYesND, SHUSGS34203.25 Good NONE
7032015-12-28 13:16:50PSTYesND, SHUSGS32403.31 Good NONE
7022015-12-28 13:10:12PSTYesND, SHUSGS33203.34 Good NONE
7012015-12-28 12:55:12PSTYesND, SHUSGS33303.41 Good NONE
7002015-12-28 12:49:30PSTYesND, SHUSGS31803.44 Good NONE
6992015-12-28 12:43:28PSTYesND, SHUSGS31003.47 Good NONE
6982015-12-28 12:37:42PSTYesND, SHUSGS28703.50 Good NONE
6972015-12-28 12:32:22PSTYesND, SHUSGS29003.52 Good NONE
6962015-12-28 12:26:27PSTYesND, SHUSGS28303.54 Good NONE
6952015-12-28 12:19:57PSTYesND, SHUSGS29103.56 Good NONE
6942015-12-28 12:12:06PSTYesND, SHUSGS26003.60 Good NONE
6932015-12-28 12:06:58PSTYesND, SHUSGS25003.62 Good NONE
6922015-12-28 12:02:31PSTYesND, SHUSGS23403.63 Good NONE
6912015-12-28 11:58:26PSTYesND, SHUSGS22203.65 Good NONE
6902015-12-28 11:51:55PSTYesND, SHUSGS20603.67 Good NONE
6892015-03-04 12:39PSTYesAD/APUSGS24902.65 UnspecifiedUnspecifedNONE
6882015-03-04 12:33PSTYesAD/APUSGS25402.66 UnspecifiedUnspecifedNONE
6872015-03-04 12:29PSTYesAD/APUSGS25702.66 UnspecifiedUnspecifedNONE
6862015-03-04 12:22PSTYesAD/APUSGS27402.67 UnspecifiedUnspecifedNONE
6852015-03-04 12:16PSTYesAD/APUSGS28402.69 UnspecifiedUnspecifedNONE
6842015-03-04 12:10PSTYesAD/APUSGS30902.71 UnspecifiedUnspecifedNONE
6832015-03-04 11:55PSTYesAD/APUSGS28202.74 UnspecifiedUnspecifedNONE
6822015-03-04 11:48PSTYesAD/APUSGS34102.76 UnspecifiedUnspecifedNONE
6812015-03-04 11:42PSTYesAD/APUSGS25902.78 UnspecifiedUnspecifedNONE
6802015-03-04 11:36PSTYesAD/APUSGS31102.80 UnspecifiedUnspecifedNONE
6792015-03-04 11:30PSTYesAD/APUSGS32302.82 UnspecifiedUnspecifedNONE
6782015-03-04 11:25PSTYesAD/APUSGS33602.83 UnspecifiedUnspecifedNONE
6772015-03-04 11:12PSTYesAD/APUSGS34802.88 UnspecifiedUnspecifedNONE
6762015-03-04 11:06PSTYesAD/APUSGS32702.90 UnspecifiedUnspecifedNONE
6752015-03-04 10:59PSTYesAD/APUSGS35402.93 UnspecifiedUnspecifedNONE
6742015-03-04 10:51PSTYesAD/APUSGS39402.96 UnspecifiedUnspecifedNONE
6732015-03-04 10:45PSTYesAD/APUSGS36803.00 UnspecifiedUnspecifedNONE
6722015-03-04 10:39PSTYesAD/APUSGS37403.04 UnspecifiedUnspecifedNONE
6712015-03-04 10:33PSTYesAD/APUSGS39403.07 UnspecifiedUnspecifedNONE
6702015-03-04 10:27PSTYesAD/APUSGS39203.10 UnspecifiedUnspecifedNONE
6692015-03-04 10:20PSTYesAD/APUSGS40703.14 UnspecifiedUnspecifedNONE
6682015-03-04 10:14PSTYesAD/APUSGS39603.20 UnspecifiedUnspecifedNONE
6672015-02-24 03:41PSTYesAD/CHAUSGS40602.62 UnspecifiedUnspecifedNONE
6662015-02-24 03:35PSTYesAD/CHAUSGS39202.65 UnspecifiedUnspecifedNONE
6652015-02-24 03:30PSTYesAD/CHAUSGS39102.62 UnspecifiedUnspecifedNONE
6642015-02-24 03:24PSTYesAD/CHAUSGS44402.64 UnspecifiedUnspecifedNONE
6632015-02-24 03:20PSTYesAD/CHAUSGS43902.67 UnspecifiedUnspecifedNONE
6622015-02-24 03:15PSTYesAD/CHAUSGS46102.70 UnspecifiedUnspecifedNONE
6612015-02-24 03:08PSTYesAD/CHAUSGS49502.73 UnspecifiedUnspecifedNONE
6602015-02-24 03:03PSTYesAD/CHAUSGS50902.77 UnspecifiedUnspecifedNONE
6592015-02-24 02:58PSTYesAD/CHAUSGS51002.81 UnspecifiedUnspecifedNONE
6582015-02-24 02:52PSTYesAD/CHAUSGS47602.87 UnspecifiedUnspecifedNONE
6572015-02-24 02:47PSTYesAD/CHAUSGS44802.92 UnspecifiedUnspecifedNONE
6562015-02-24 02:35PSTYesAD/CHAUSGS45803.00 UnspecifiedUnspecifedNONE
6552015-02-24 02:28PSTYesAD/CHAUSGS47503.05 UnspecifiedUnspecifedNONE
6542015-02-24 02:22PSTYesAD/CHAUSGS49403.10 UnspecifiedUnspecifedNONE
6532015-02-24 02:15PSTYesAD/CHAUSGS50603.14 UnspecifiedUnspecifedNONE
6522015-02-24 02:10PSTYesAD/CHAUSGS52503.19 UnspecifiedUnspecifedNONE
6512015-02-24 02:05PSTYesAD/CHAUSGS46203.24 UnspecifiedUnspecifedNONE
6502015-02-24 02:00PSTYesAD/CHAUSGS56603.28 UnspecifiedUnspecifedNONE
6492015-02-24 01:54PSTYesAD/CHAUSGS51303.32 UnspecifiedUnspecifedNONE
6482015-02-24 01:48PSTYesAD/CHAUSGS56703.36 UnspecifiedUnspecifedNONE
6472015-02-24 01:43PSTYesAD/CHAUSGS53903.40 UnspecifiedUnspecifedNONE
6462015-02-24 01:37PSTYesAD/CHAUSGS51503.45 UnspecifiedUnspecifedNONE
6452015-02-24 01:33PSTYesAD/CHAUSGS49403.50 UnspecifiedUnspecifedNONE
6442015-02-24 01:27PSTYesAD/CHAUSGS49103.53 UnspecifiedUnspecifedNONE
6432015-02-24 01:23PSTYesAD/CHAUSGS51503.57 UnspecifiedUnspecifedNONE
6422015-02-24 01:18PSTYesAD/CHAUSGS47203.61 UnspecifiedUnspecifedNONE
6412015-02-24 01:14PSTYesAD/CHAUSGS49303.65 UnspecifiedUnspecifedNONE
6402015-02-24 01:09PSTYesAD/CHAUSGS53403.68 UnspecifiedUnspecifedNONE
6392015-02-24 00:55PSTYesAD/CHAUSGS52803.78 UnspecifiedUnspecifedNONE
6382015-02-24 00:52PSTYesAD/CHAUSGS53403.82 UnspecifiedUnspecifedNONE
6372015-02-24 00:46PSTYesAD/CHAUSGS52703.87 UnspecifiedUnspecifedNONE
6362015-02-24 00:42PSTYesAD/CHAUSGS47703.95 UnspecifiedUnspecifedNONE
6352015-02-24 00:38PSTYesAD/CHAUSGS44104.00 UnspecifiedUnspecifedNONE
6342015-02-24 00:34PSTYesAD/CHAUSGS40404.05 UnspecifiedUnspecifedNONE
6332015-02-24 00:30PSTYesAD/CHAUSGS39904.07 UnspecifiedUnspecifedNONE
6322015-02-24 00:26PSTYesAD/CHAUSGS42104.10 UnspecifiedUnspecifedNONE
6312015-02-24 00:21PSTYesAD/CHAUSGS39804.13 UnspecifiedUnspecifedNONE
6302015-02-24 00:08PSTYesAD/CHAUSGS18804.44 UnspecifiedUnspecifedNONE
6292015-02-24 00:03PSTYesAD/CHAUSGS11304.52 UnspecifiedUnspecifedNONE
6282015-02-23 23:59PSTYesAD/CHAUSGS7014.55 UnspecifiedUnspecifedNONE
6272015-02-23 23:54PSTYesAD/CHAUSGS1924.59 UnspecifiedUnspecifedNONE
6262015-02-23 23:50PSTYesAD/CHAUSGS-1604.62 UnspecifiedUnspecifedNONE
6252015-02-23 23:45PSTYesAD/CHAUSGS-5754.65 UnspecifiedUnspecifedNONE
6242015-02-23 23:41PSTYesAD/CHAUSGS-8084.68 UnspecifiedUnspecifedNONE
6232015-02-23 23:35PSTYesAD/CHAUSGS-12004.70 UnspecifiedUnspecifedNONE
6222015-02-23 23:31PSTYesAD/CHAUSGS-13104.72 UnspecifiedUnspecifedNONE
6212015-02-23 23:24PSTYesAD/CHAUSGS-16404.74 UnspecifiedUnspecifedNONE
6202015-02-23 23:20PSTYesAD/CHAUSGS-18704.75 UnspecifiedUnspecifedNONE
6192015-02-23 23:14PSTYesAD/CHAUSGS-20704.75 UnspecifiedUnspecifedNONE
6182015-02-23 23:11PSTYesAD/CHAUSGS-25004.76 UnspecifiedUnspecifedNONE
6172015-02-23 23:05PSTYesAD/CHAUSGS-29804.76 UnspecifiedUnspecifedNONE
6162015-02-23 23:01PSTYesAD/CHAUSGS-27704.75 UnspecifiedUnspecifedNONE
6152015-02-23 22:54PSTYesAD/CHAUSGS-26104.75 UnspecifiedUnspecifedNONE
6142015-02-23 22:49PSTYesAD/CHAUSGS-30304.73 UnspecifiedUnspecifedNONE
6132015-02-23 22:41PSTYesAD/CHAUSGS-30804.72 UnspecifiedUnspecifedNONE
6122015-02-23 22:33PSTYesAD/CHAUSGS-34104.68 UnspecifiedUnspecifedNONE
6112015-02-23 22:26PSTYesAD/CHAUSGS-34204.66 UnspecifiedUnspecifedNONE
6102015-02-23 22:21PSTYesAD/CHAUSGS-34804.63 UnspecifiedUnspecifedNONE
6092015-02-23 22:15PSTYesAD/CHAUSGS-36704.60 UnspecifiedUnspecifedNONE
6082015-02-23 22:11PSTYesAD/CHAUSGS-33904.58 UnspecifiedUnspecifedNONE
6072015-02-23 22:04PSTYesAD/CHAUSGS-35504.55 UnspecifiedUnspecifedNONE
6062015-02-23 21:59PSTYesAD/CHAUSGS-38104.52 UnspecifiedUnspecifedNONE
6052015-02-23 21:51PSTYesAD/CHAUSGS-33604.47 UnspecifiedUnspecifedNONE
6042015-02-23 21:46PSTYesAD/CHAUSGS-35404.44 UnspecifiedUnspecifedNONE
6032015-02-23 21:39PSTYesAD/CHAUSGS-35604.40 UnspecifiedUnspecifedNONE
6022015-02-23 21:34PSTYesAD/CHAUSGS-37404.36 UnspecifiedUnspecifedNONE
6012015-02-23 21:27PSTYesAD/CHAUSGS-35804.31 UnspecifiedUnspecifedNONE
6002015-02-23 21:19PSTYesAD/CHAUSGS-37204.25 UnspecifiedUnspecifedNONE
5992015-02-23 21:12PSTYesAD/CHAUSGS-37704.21 UnspecifiedUnspecifedNONE
5982015-02-23 21:07PSTYesAD/CHAUSGS-37804.16 UnspecifiedUnspecifedNONE
5972015-02-23 21:03PSTYesAD/CHAUSGS-35704.13 UnspecifiedUnspecifedNONE
5962015-02-23 20:57PSTYesAD/CHAUSGS-38704.09 UnspecifiedUnspecifedNONE
5952015-02-23 20:51PSTYesAD/CHAUSGS-38804.04 UnspecifiedUnspecifedNONE
5942015-02-23 20:46PSTYesAD/CHAUSGS-36104.00 UnspecifiedUnspecifedNONE
5932015-02-23 20:38PSTYesAD/CHAUSGS-35003.94 UnspecifiedUnspecifedNONE
5922015-02-23 20:33PSTYesAD/CHAUSGS-35903.89 UnspecifiedUnspecifedNONE
5912015-02-23 20:25PSTYesAD/CHAUSGS-36003.84 UnspecifiedUnspecifedNONE
5902015-02-23 20:20PSTYesAD/CHAUSGS-37003.79 UnspecifiedUnspecifedNONE
5892015-02-23 20:14PSTYesAD/CHAUSGS-35203.75 UnspecifiedUnspecifedNONE
5882015-02-23 20:09PSTYesAD/CHAUSGS-33003.71 UnspecifiedUnspecifedNONE
5872015-02-23 20:00PSTYesAD/CHAUSGS-31403.67 UnspecifiedUnspecifedNONE
5862015-02-23 19:55PSTYesAD/CHAUSGS-27703.63 UnspecifiedUnspecifedNONE
5852015-02-23 19:47PSTYesAD/CHAUSGS-25903.59 UnspecifiedUnspecifedNONE
5842015-02-23 19:44PSTYesAD/CHAUSGS-24403.54 UnspecifiedUnspecifedNONE
5832015-02-23 19:38PSTYesAD/CHAUSGS-22903.51 UnspecifiedUnspecifedNONE
5822015-02-23 19:35PSTYesAD/CHAUSGS-23203.48 UnspecifiedUnspecifedNONE
5812015-02-23 19:23PSTYesAD/CHAUSGS-21403.42 UnspecifiedUnspecifedNONE
5802015-01-21 16:34PSTYesAD/NDUSGS-31304.02 UnspecifiedUnspecifedNONE
5792015-01-21 16:24PSTYesAD/NDUSGS-24003.93 UnspecifiedUnspecifedNONE
5782015-01-21 14:11PSTYesAD/NDUSGS2143.14 UnspecifiedUnspecifedNONE
5772015-01-21 14:01PSTYesAD/NDUSGS7833.07 UnspecifiedUnspecifedNONE
5762015-01-21 13:52PSTYesAD/NDUSGS14302.99 UnspecifiedUnspecifedNONE
5752015-01-21 13:42PSTYesAD/NDUSGS17702.93 UnspecifiedUnspecifedNONE
5742015-01-21 13:31PSTYesAD/NDUSGS25102.88 UnspecifiedUnspecifedNONE
5732015-01-21 13:21PSTYesAD/NDUSGS31202.86 UnspecifiedUnspecifedNONE
5722015-01-21 13:10PSTYesAD/NDUSGS33102.87 UnspecifiedUnspecifedNONE
5712015-01-21 12:59PSTYesAD/NDUSGS37702.89 UnspecifiedUnspecifedNONE
5702015-01-21 12:39PSTYesAD/NDUSGS35202.96 UnspecifiedUnspecifedNONE
5692015-01-21 12:29PSTYesAD/NDUSGS43202.99 UnspecifiedUnspecifedNONE
5682015-01-21 12:17PSTYesAD/NDUSGS42003.04 UnspecifiedUnspecifedNONE
5672015-01-21 12:07PSTYesAD/NDUSGS42803.09 UnspecifiedUnspecifedNONE
5662015-01-21 11:57PSTYesAD/NDUSGS41703.14 UnspecifiedUnspecifedNONE
5652015-01-21 11:46PSTYesAD/NDUSGS39403.19 UnspecifiedUnspecifedNONE
5642015-01-21 11:28PSTYesAD/NDUSGS44103.30 UnspecifiedUnspecifedNONE
5632015-01-21 11:19PSTYesAD/NDUSGS43403.37 UnspecifiedUnspecifedNONE
5622015-01-21 11:07PSTYesAD/NDUSGS45603.43 UnspecifiedUnspecifedNONE
5612015-01-21 10:57PSTYesAD/NDUSGS48803.51 UnspecifiedUnspecifedNONE
5602015-01-06 15:29PSTYesAD/NDUSGS-25003.75 UnspecifiedUnspecifedNONE
5592015-01-06 15:14PSTYesAD/NDUSGS-19503.67 UnspecifiedUnspecifedNONE
5582015-01-06 15:02PSTYesAD/NDUSGS-15503.59 UnspecifiedUnspecifedNONE
5572015-01-06 14:48PSTYesAD/NDUSGS-11303.51 UnspecifiedUnspecifedNONE
5562015-01-06 14:37PSTYesAD/NDUSGS-7543.42 UnspecifiedUnspecifedNONE
5552015-01-06 14:27PSTYesAD/NDUSGS-2523.35 UnspecifiedUnspecifedNONE
5542015-01-06 14:04PSTYesAD/NDUSGS7303.17 UnspecifiedUnspecifedNONE
5532015-01-06 13:54PSTYesAD/NDUSGS13103.09 UnspecifiedUnspecifedNONE
5522011-03-08 14:58PSTYesYESUSGS6510 Unspecified NONE
5512011-03-08 14:53PSTYesYESUSGS6630 Unspecified NONE
5502011-03-08 14:49PSTYesYESUSGS6650 Unspecified NONE
5492011-03-08 14:44PSTYesYESUSGS6820 Unspecified NONE
5482011-03-08 14:39PSTYesYESUSGS7280 Unspecified NONE
5472011-03-08 14:35PSTYesYESUSGS7170 Unspecified NONE
5462010-03-11 12:16PSTYesYESUSGS626 Unspecified NONE
5452010-03-11 12:13PSTYesYESUSGS659 Unspecified NONE
5442010-03-11 12:10PSTYesYESUSGS801 Unspecified NONE
5432010-03-11 12:07PSTYesYESUSGS813 Unspecified NONE
5422010-03-11 12:04PSTYesYESUSGS1130 Unspecified NONE
5412010-03-11 12:01PSTYesYESUSGS1360 Unspecified NONE
5402009-03-17 09:43PSTYesBJS/CRBUSGS-34804.74 Unspecified NONE
5392009-03-17 09:39PSTYesBJS/CRBUSGS-36304.71 Unspecified NONE
5382009-03-17 09:35PSTYesBJS/CRBUSGS-34204.68 Unspecified NONE
5372009-03-17 09:31PSTYesBJS/CRBUSGS-35204.66 Unspecified NONE
5362009-03-17 09:28PSTYesBJS/CRBUSGS-37304.64 Unspecified NONE
5352009-03-17 09:24PSTYesBJS/CRBUSGS-36404.61 Unspecified NONE
5342009-02-12 16:46PSTYesYESUSGS-693 Unspecified NONE
5332009-02-12 16:43PSTYesYESUSGS-516 Unspecified NONE
5322009-02-12 16:40PSTYesYESUSGS-515 Unspecified NONE
5312009-02-12 16:37PSTYesYESUSGS-362 Unspecified NONE
5302009-02-12 16:34PSTYesYESUSGS-242 Unspecified NONE
5292009-02-12 16:31PSTYesYESUSGS-79.7 Unspecified NONE
5282009-02-12 16:28PSTYesYESUSGS107 Unspecified NONE
5272009-02-12 16:26PSTYesYESUSGS275 Unspecified NONE
5262009-02-12 16:22PSTYesYESUSGS440 Unspecified NONE
5252009-02-12 16:19PSTYesYESUSGS576 Unspecified NONE
5242009-02-12 16:07PSTYesYESUSGS1660 Unspecified NONE
5232009-02-12 16:04PSTYesYESUSGS1920 Unspecified NONE
5222009-02-12 16:00PSTYesYESUSGS2080 Unspecified NONE
5212009-02-12 15:57PSTYesYESUSGS2480 Unspecified NONE
5202009-02-12 15:54PSTYesYESUSGS2720 Unspecified NONE
5192009-02-12 15:51PSTYesYESUSGS2730 Unspecified NONE
5182009-02-12 15:45PSTYesYESUSGS3290 Unspecified NONE
5172009-02-12 15:39PSTYesYESUSGS3400 Unspecified NONE
5162009-02-12 15:24PSTYesYESUSGS4250 Unspecified NONE
5152009-02-12 15:19PSTYesYESUSGS4310 Unspecified NONE
5142009-02-12 15:13PSTYesYESUSGS4330 Unspecified NONE
5132009-02-12 15:08PSTYesYESUSGS4400 Unspecified NONE
5122009-02-12 15:03PSTYesYESUSGS4620 Unspecified NONE
5112009-02-12 14:57PSTYesYESUSGS4640 Unspecified NONE
5102009-02-12 14:51PSTYesYESUSGS4620 Unspecified NONE
5092009-02-12 14:46PSTYesYESUSGS4680 Unspecified NONE
5082009-02-12 14:42PSTYesYESUSGS4740 Unspecified NONE
5072009-02-12 14:37PSTYesYESUSGS4790 Unspecified NONE
5062009-02-12 14:29PSTYesYESUSGS4840 Unspecified NONE
5052009-02-12 14:25PSTYesYESUSGS4980 Unspecified NONE
5042009-02-12 14:20PSTYesYESUSGS4870 Unspecified NONE
5032009-02-12 14:16PSTYesYESUSGS5080 Unspecified NONE
5022009-02-12 14:12PSTYesYESUSGS5080 Unspecified NONE
5012009-02-12 14:08PSTYesYESUSGS5140 Unspecified NONE
5002009-02-12 14:06PSTYesYESUSGS4930 Unspecified NONE
4992009-02-12 14:02PSTYesYESUSGS5000 Unspecified NONE
4982009-02-12 13:41PSTYesYESUSGS5340 Unspecified NONE
4972009-02-12 13:32PSTYesYESUSGS5060 Unspecified NONE
4962009-02-12 13:27PSTYesYESUSGS5380 Unspecified NONE
4952009-02-12 13:23PSTYesYESUSGS5550 Unspecified NONE
4942009-02-12 13:17PSTYesYESUSGS5270 Unspecified NONE
4932009-02-12 13:02PSTYesYESUSGS5450 Unspecified NONE
4922009-02-12 12:57PSTYesYESUSGS5330 Unspecified NONE
4912009-02-12 12:52PSTYesYESUSGS5280 Unspecified NONE
4902009-02-12 12:47PSTYesYESUSGS5360 Unspecified NONE
4892009-02-12 12:42PSTYesYESUSGS5230 Unspecified NONE
4882009-02-12 12:37PSTYesYESUSGS5290 Unspecified NONE
4872009-02-12 12:30PSTYesYESUSGS5320 Unspecified NONE
4862009-02-12 12:24PSTYesYESUSGS5310 Unspecified NONE
4852009-02-12 12:19PSTYesYESUSGS5650 Unspecified NONE
4842009-02-12 12:14PSTYesYESUSGS5500 Unspecified NONE
4832009-02-12 12:09PSTYesYESUSGS5420 Unspecified NONE
4822009-02-12 11:51PSTYesYESUSGS5390 Unspecified NONE
4812009-02-12 11:46PSTYesYESUSGS5200 Unspecified NONE
4802009-02-12 11:42PSTYesYESUSGS5330 Unspecified NONE
4792009-02-12 11:38PSTYesYESUSGS5300 Unspecified NONE
4782009-02-12 11:34PSTYesYESUSGS5460 Unspecified NONE
4772009-02-12 11:29PSTYesYESUSGS5320 Unspecified NONE
4762009-02-12 11:25PSTYesYESUSGS5110 Unspecified NONE
4752009-02-12 11:21PSTYesYESUSGS5040 Unspecified NONE
4742009-02-12 11:16PSTYesYESUSGS4840 Unspecified NONE
4732009-02-12 11:12PSTYesYESUSGS4630 Unspecified NONE
4722009-02-12 11:08PSTYesYESUSGS4540 Unspecified NONE
4712009-02-12 11:04PSTYesYESUSGS4320 Unspecified NONE
4702009-02-12 11:00PSTYesYESUSGS4100 Unspecified NONE
4692009-02-12 10:56PSTYesYESUSGS3940 Unspecified NONE
4682009-02-12 10:52PSTYesYESUSGS3690 Unspecified NONE
4672009-02-12 10:49PSTYesYESUSGS3430 Unspecified NONE
4662009-02-12 10:45PSTYesYESUSGS3170 Unspecified NONE
4652009-02-12 10:42PSTYesYESUSGS2880 Unspecified NONE
4642009-02-12 10:37PSTYesYESUSGS2690 Unspecified NONE
4632009-02-12 10:34PSTYesYESUSGS2260 Unspecified NONE
4622009-02-12 10:30PSTYesYESUSGS2090 Unspecified NONE
4612009-02-12 10:26PSTYesYESUSGS1590 Unspecified NONE
4602009-02-12 10:22PSTYesYESUSGS1420 Unspecified NONE
4592009-02-12 10:19PSTYesYESUSGS1080 Unspecified NONE
4582009-02-12 10:16PSTYesYESUSGS831 Unspecified NONE
4572009-02-12 10:12PSTYesYESUSGS598 Unspecified NONE
4562009-02-12 10:08PSTYesYESUSGS231 Unspecified NONE
4552009-02-12 10:05PSTYesYESUSGS49.4 Unspecified NONE
4542009-02-12 10:02PSTYesYESUSGS-175 Unspecified NONE
4532009-02-12 09:58PSTYesYESUSGS-587 Unspecified NONE
4522009-02-12 09:54PSTYesYESUSGS-647 Unspecified NONE
4512009-02-12 09:50PSTYesYESUSGS-1050 Unspecified NONE
4502009-02-12 09:46PSTYesYESUSGS-1230 Unspecified NONE
4492009-02-12 09:42PSTYesYESUSGS-1460 Unspecified NONE
4482009-02-12 09:38PSTYesYESUSGS-1740 Unspecified NONE
4472009-02-12 09:33PSTYesYESUSGS-1840 Unspecified NONE
4462009-02-12 09:28PSTYesYESUSGS-2070 Unspecified NONE
4452009-02-12 09:23PSTYesYESUSGS-2430 Unspecified NONE
4442009-02-12 09:19PSTYesYESUSGS-2400 Unspecified NONE
4432009-02-12 09:15PSTYesYESUSGS-2590 Unspecified NONE
4422009-02-12 08:58PSTYesYESUSGS-2910 Unspecified NONE
4412009-02-12 08:53PSTYesYESUSGS-3100 Unspecified NONE
4402009-02-12 08:34PSTYesYESUSGS-3260 Unspecified NONE
4392009-02-12 08:29PSTYesYESUSGS-3380 Unspecified NONE
4382009-02-12 08:24PSTYesYESUSGS-3250 Unspecified NONE
4372009-02-12 08:20PSTYesYESUSGS-3220 Unspecified NONE
4362009-02-12 08:12PSTYesYESUSGS-3320 Unspecified NONE
4352009-02-12 08:08PSTYesYESUSGS-3340 Unspecified NONE
4342009-02-12 08:04PSTYesYESUSGS-3520 Unspecified NONE
4332009-02-12 07:58PSTYesYESUSGS-3480 Unspecified NONE
4322009-02-12 07:53PSTYesYESUSGS-3500 Unspecified NONE
4312009-02-12 07:49PSTYesYESUSGS-3500 Unspecified NONE
4302009-02-12 07:43PSTYesYESUSGS-3390 Unspecified NONE
4292009-02-12 07:39PSTYesYESUSGS-3140 Unspecified NONE
4282009-02-12 07:32PSTYesYESUSGS-3300 Unspecified NONE
4272009-01-13 10:51PSTYesPJS/MAYUSGS51203.37 UnspecifiedUnspecifedNONE
4262009-01-13 10:46PSTYesPJS/MAYUSGS48803.43 UnspecifiedUnspecifedNONE
4252009-01-13 10:42PSTYesPJS/MAYUSGS43103.46 UnspecifiedUnspecifedNONE
4242009-01-13 10:36PSTYesPJS/MAYUSGS40203.48 UnspecifiedUnspecifedNONE
4232009-01-13 10:32PSTYesPJS/MAYUSGS37603.50 UnspecifiedUnspecifedNONE
4222009-01-13 10:28PSTYesPJS/MAYUSGS34003.53 UnspecifiedUnspecifedNONE
4212009-01-13 10:25PSTYesPJS/MAYUSGS26903.55 UnspecifiedUnspecifedNONE
4202009-01-13 10:21PSTYesPJS/MAYUSGS28503.59 UnspecifiedUnspecifedNONE
4192009-01-13 10:17PSTYesPJS/MAYUSGS26903.62 UnspecifiedUnspecifedNONE
4182009-01-13 10:14PSTYesPJS/MAYUSGS27603.65 UnspecifiedUnspecifedNONE
4172008-03-07 02:33PSTYesPSx/AUTUSGS16001.88 Unspecified NONE
4162008-03-07 02:29PSTYesPSx/AUTUSGS16901.86 Unspecified NONE
4152008-03-07 02:23PSTYesPSx/AUTUSGS17201.83 Unspecified NONE
4142008-03-07 02:18PSTYesPSx/AUTUSGS21301.80 Unspecified NONE
4132008-03-07 02:14PSTYesPSx/AUTUSGS21701.78 Unspecified NONE
4122008-03-07 02:11PSTYesPSx/AUTUSGS23401.77 Unspecified NONE
4112008-03-07 02:07PSTYesPSx/AUTUSGS22901.77 Unspecified NONE
4102008-03-07 02:03PSTYesPSx/AUTUSGS25001.76 Unspecified NONE
4092008-03-07 02:00PSTYesPSx/AUTUSGS24601.75 Unspecified NONE
4082008-03-07 01:53PSTYesPSx/AUTUSGS27201.72 Unspecified NONE
4072008-03-07 01:49PSTYesPSx/AUTUSGS29701.71 Unspecified NONE
4062008-03-07 01:46PSTYesPSx/AUTUSGS30601.69 Unspecified NONE
4052008-03-07 01:36PSTYesPSx/AUTUSGS35601.67 Unspecified NONE
4042008-03-07 01:25PSTYesPSx/AUTUSGS38801.66 Unspecified NONE
4032008-03-07 01:22PSTYesPSx/AUTUSGS41001.66 Unspecified NONE
4022008-03-07 01:14PSTYesPSx/AUTUSGS42301.66 Unspecified NONE
4012008-03-07 01:10PSTYesPSx/AUTUSGS44401.68 Unspecified NONE
4002008-03-07 01:02PSTYesPSx/AUTUSGS45201.72 Unspecified NONE
3992008-03-07 00:58PSTYesPSx/AUTUSGS49401.73 Unspecified NONE
3982008-03-07 00:50PSTYesPSx/AUTUSGS49101.77 Unspecified NONE
3972008-03-07 00:47PSTYesPSx/AUTUSGS49201.79 Unspecified NONE
3962008-03-07 00:43PSTYesPSx/AUTUSGS51201.81 Unspecified NONE
3952008-03-07 00:39PSTYesPSx/AUTUSGS51801.82 Unspecified NONE
3942008-03-07 00:31PSTYesPSx/AUTUSGS57301.85 Unspecified NONE
3932008-03-07 00:27PSTYesPSx/AUTUSGS58601.89 Unspecified NONE
3922008-03-07 00:18PSTYesPSx/AUTUSGS58102.01 Unspecified NONE
3912008-03-07 00:13PSTYesPSx/AUTUSGS56002.08 Unspecified NONE
3902008-03-06 23:47PSTYesPSx/AUTUSGS51902.36 Unspecified NONE
3892008-03-06 23:43PSTYesPSx/AUTUSGS49002.39 Unspecified NONE
3882008-03-06 23:31PSTYesPSx/AUTUSGS52302.47 Unspecified NONE
3872008-03-06 23:26PSTYesPSx/AUTUSGS54902.51 Unspecified NONE
3862008-03-06 23:15PSTYesPSx/AUTUSGS53002.60 Unspecified NONE
3852008-03-06 23:11PSTYesPSx/AUTUSGS49702.63 Unspecified NONE
3842008-03-06 23:02PSTYesPSx/AUTUSGS51802.70 Unspecified NONE
3832008-03-06 22:59PSTYesPSx/AUTUSGS53202.73 Unspecified NONE
3822008-03-06 22:23PSTYesPSx/AUTUSGS53503.01 Unspecified NONE
3812008-03-06 22:19PSTYesPSx/AUTUSGS50403.04 Unspecified NONE
3802008-03-06 22:01PSTYesPSx/AUTUSGS53003.18 Unspecified NONE
3792008-03-06 21:58PSTYesPSx/AUTUSGS50903.21 Unspecified NONE
3782008-03-06 21:46PSTYesPSx/AUTUSGS52003.31 Unspecified NONE
3772008-03-06 21:43PSTYesPSx/AUTUSGS49503.32 Unspecified NONE
3762008-03-06 21:17PSTYesPSx/AUTUSGS61103.45 Unspecified NONE
3752008-03-06 21:12PSTYesPSx/AUTUSGS61603.50 Unspecified NONE
3742008-03-06 21:04PSTYesPSx/AUTUSGS62003.57 Unspecified NONE
3732008-03-06 20:59PSTYesPSx/AUTUSGS62003.62 Unspecified NONE
3722008-03-06 20:55PSTYesPSx/AUTUSGS66503.66 Unspecified NONE
3712008-03-06 20:35PSTYesPSx/AUTUSGS57403.91 Unspecified NONE
3702008-03-06 20:31PSTYesPSx/AUTUSGS54903.97 Unspecified NONE
3692008-03-06 20:17PSTYesPSx/AUTUSGS52604.10 Unspecified NONE
3682008-03-06 20:14PSTYesPSx/AUTUSGS55004.12 Unspecified NONE
3672008-03-06 20:10PSTYesPSx/AUTUSGS56304.16 Unspecified NONE
3662008-03-06 20:07PSTYesPSx/AUTUSGS54204.18 Unspecified NONE
3652008-03-06 19:58PSTYesPSx/AUTUSGS52904.25 Unspecified NONE
3642008-03-06 19:55PSTYesPSx/AUTUSGS52404.28 Unspecified NONE
3632008-03-06 19:41PSTYesPSx/AUTUSGS48004.40 Unspecified NONE
3622008-03-06 19:37PSTYesPSx/AUTUSGS47204.43 Unspecified NONE
3612008-03-06 19:33PSTYesPSx/AUTUSGS44304.47 Unspecified NONE
3602008-03-06 19:29PSTYesPSx/AUTUSGS41504.50 Unspecified NONE
3592008-03-06 19:26PSTYesPSx/AUTUSGS40504.53 Unspecified NONE
3582008-03-06 19:22PSTYesPSx/AUTUSGS38404.56 Unspecified NONE
3572008-03-06 19:19PSTYesPSx/AUTUSGS35904.59 Unspecified NONE
3562008-03-06 19:16PSTYesPSx/AUTUSGS35104.61 Unspecified NONE
3552008-03-06 19:12PSTYesPSx/AUTUSGS31804.65 Unspecified NONE
3542008-03-06 19:08PSTYesPSx/AUTUSGS27104.68 Unspecified NONE
3532008-03-06 19:02PSTYesPSx/AUTUSGS23704.73 Unspecified NONE
3522008-03-06 18:58PSTYesPSx/AUTUSGS19504.76 Unspecified NONE
3512008-03-06 18:55PSTYesPSx/AUTUSGS16804.78 Unspecified NONE
3502008-03-06 18:52PSTYesPSx/AUTUSGS14604.80 Unspecified NONE
3492008-03-06 18:49PSTYesPSx/AUTUSGS11704.82 Unspecified NONE
3482008-03-06 18:45PSTYesPSx/AUTUSGS8284.85 Unspecified NONE
3472008-03-06 18:39PSTYesPSx/AUTUSGS2674.88 Unspecified NONE
3462008-03-06 18:06PSTYesPSx/AUTUSGS-19304.94 Unspecified NONE
3452008-03-06 18:03PSTYesPSx/AUTUSGS-19804.94 Unspecified NONE
3442008-03-06 18:00PSTYesPSx/AUTUSGS-18704.94 Unspecified NONE
3432008-03-06 17:57PSTYesPSx/AUTUSGS-24404.94 Unspecified NONE
3422008-03-06 17:51PSTYesPSx/AUTUSGS-24304.92 Unspecified NONE
3412008-03-06 17:48PSTYesPSx/AUTUSGS-24404.91 Unspecified NONE
3402008-03-06 17:46PSTYesPSx/AUTUSGS-22804.91 Unspecified NONE
3392008-03-06 17:43PSTYesPSx/AUTUSGS-27004.90 Unspecified NONE
3382008-03-06 17:36PSTYesPSx/AUTUSGS-27504.87 Unspecified NONE
3372008-03-06 17:32PSTYesPSx/AUTUSGS-28404.85 Unspecified NONE
3362008-03-06 17:29PSTYesPSx/AUTUSGS-28504.84 Unspecified NONE
3352008-03-06 17:27PSTYesPSx/AUTUSGS-31304.83 Unspecified NONE
3342008-03-06 17:19PSTYesPSx/AUTUSGS-32304.79 Unspecified NONE
3332008-03-06 17:16PSTYesPSx/AUTUSGS-32904.77 Unspecified NONE
3322008-03-06 17:13PSTYesPSx/AUTUSGS-32704.75 Unspecified NONE
3312008-03-06 17:10PSTYesPSx/AUTUSGS-33204.73 Unspecified NONE
3302008-03-06 16:49PSTYesPSx/AUTUSGS-33004.59 Unspecified NONE
3292008-03-06 16:46PSTYesPSx/AUTUSGS-32304.57 Unspecified NONE
3282008-03-06 16:43PSTYesPSx/AUTUSGS-35804.55 Unspecified NONE
3272008-03-06 16:40PSTYesPSx/AUTUSGS-31004.53 Unspecified NONE
3262008-03-06 16:37PSTYesPSx/AUTUSGS-32104.51 Unspecified NONE
3252008-03-06 16:35PSTYesPSx/AUTUSGS-32804.49 Unspecified NONE
3242008-03-06 16:19PSTYesPSx/AUTUSGS-34204.37 Unspecified NONE
3232008-03-06 16:13PSTYesPSx/AUTUSGS-32504.32 Unspecified NONE
3222008-01-10 16:02PSTYesJRY/CRBUSGS-33104.08 Unspecified NONE
3212008-01-10 15:57PSTYesJRY/CRBUSGS-32204.05 Unspecified NONE
3202008-01-10 15:53PSTYesJRY/CRBUSGS-30004.02 Unspecified NONE
3192008-01-10 15:49PSTYesJRY/CRBUSGS-31504.00 Unspecified NONE
3182008-01-10 15:43PSTYesJRY/CRBUSGS-26503.96 Unspecified NONE
3172008-01-10 15:39PSTYesJRY/CRBUSGS-26603.94 Unspecified NONE
3162008-01-10 15:34PSTYesJRY/CRBUSGS-23103.91 Unspecified NONE
3152008-01-10 15:29PSTYesJRY/CRBUSGS-23003.88 Unspecified NONE
3142008-01-10 15:25PSTYesJRY/CRBUSGS-20403.85 Unspecified NONE
3132008-01-10 15:22PSTYesJRY/CRBUSGS-19603.84 Unspecified NONE
3122008-01-10 15:17PSTYesJRY/CRBUSGS-18603.81 Unspecified NONE
3112008-01-10 15:13PSTYesJRY/CRBUSGS-16503.78 Unspecified NONE
3102008-01-10 15:08PSTYesJRY/CRBUSGS-14503.75 Unspecified NONE
3092008-01-10 15:04PSTYesJRY/CRBUSGS-13603.72 Unspecified NONE
3082008-01-10 15:00PSTYesJRY/CRBUSGS-11703.70 Unspecified NONE
3072008-01-10 14:56PSTYesJRY/CRBUSGS-9943.67 Unspecified NONE
3062008-01-10 14:52PSTYesJRY/CRBUSGS-10203.64 Unspecified NONE
3052008-01-10 14:45PSTYesJRY/CRBUSGS-5343.58 Unspecified NONE
3042008-01-10 14:40PSTYesJRY/CRBUSGS-3133.55 Unspecified NONE
3032008-01-10 14:36PSTYesJRY/CRBUSGS44.03.51 Unspecified NONE
3022008-01-10 14:32PSTYesJRY/CRBUSGS2523.48 Unspecified NONE
3012008-01-10 14:27PSTYesJRY/CRBUSGS5063.44 Unspecified NONE
3002008-01-10 14:23PSTYesJRY/CRBUSGS7893.41 Unspecified NONE
2992008-01-10 14:19PSTYesJRY/CRBUSGS11403.37 Unspecified NONE
2982008-01-10 14:15PSTYesJRY/CRBUSGS14803.33 Unspecified NONE
2972008-01-10 14:09PSTYesJRY/CRBUSGS19803.29 Unspecified NONE
2962008-01-10 14:05PSTYesJRY/CRBUSGS23503.26 Unspecified NONE
2952008-01-10 14:00PSTYesJRY/CRBUSGS24703.23 Unspecified NONE
2942008-01-10 13:55PSTYesJRY/CRBUSGS31403.22 Unspecified NONE
2932008-01-10 13:50PSTYesJRY/CRBUSGS32503.21 Unspecified NONE
2922008-01-10 13:46PSTYesJRY/CRBUSGS32103.20 Unspecified NONE
2912008-01-10 13:41PSTYesJRY/CRBUSGS33703.20 Unspecified NONE
2902008-01-10 13:37PSTYesJRY/CRBUSGS35203.20 Unspecified NONE
2892008-01-10 13:24PSTYesJRY/CRBUSGS40003.22 Unspecified NONE
2882008-01-10 13:20PSTYesJRY/CRBUSGS42003.23 Unspecified NONE
2872008-01-10 13:15PSTYesJRY/CRBUSGS43703.24 Unspecified NONE
2862008-01-10 13:10PSTYesJRY/CRBUSGS44803.26 Unspecified NONE
2852008-01-10 13:04PSTYesJRY/CRBUSGS41603.28 Unspecified NONE
2842008-01-10 13:00PSTYesJRY/CRBUSGS40703.30 Unspecified NONE
2832008-01-10 12:54PSTYesJRY/CRBUSGS40603.33 Unspecified NONE
2822008-01-10 12:49PSTYesJRY/CRBUSGS42203.35 Unspecified NONE
2812008-01-10 12:43PSTYesJRY/CRBUSGS39803.38 Unspecified NONE
2802008-01-10 12:38PSTYesJRY/CRBUSGS39103.41 Unspecified NONE
2792008-01-10 12:32PSTYesJRY/CRBUSGS36503.44 Unspecified NONE
2782008-01-10 12:25PSTYesJRY/CRBUSGS35003.48 Unspecified NONE
2772008-01-10 12:20PSTYesJRY/CRBUSGS34103.52 Unspecified NONE
2762008-01-10 12:15PSTYesJRY/CRBUSGS31603.55 Unspecified NONE
2752008-01-10 12:10PSTYesJRY/CRBUSGS28703.57 Unspecified NONE
2742008-01-10 12:05PSTYesJRY/CRBUSGS26703.59 Unspecified NONE
2732008-01-10 12:00PSTYesJRY/CRBUSGS23303.61 Unspecified NONE
2722008-01-10 11:55PSTYesJRY/CRBUSGS21203.63 Unspecified NONE
2712008-01-10 11:50PSTYesJRY/CRBUSGS20603.66 Unspecified NONE
2702008-01-10 11:44PSTYesJRY/CRBUSGS19603.69 Unspecified NONE
2692008-01-10 11:36PSTYesJRY/CRBUSGS16803.74 Unspecified NONE
2682008-01-10 11:31PSTYesJRY/CRBUSGS13703.78 Unspecified NONE
2672008-01-10 11:25PSTYesJRY/CRBUSGS10803.79 Unspecified NONE
2662008-01-10 11:19PSTYesJRY/CRBUSGS2883.79 Unspecified NONE
2652008-01-10 10:59PSTYesJRY/CRBUSGS-2593.83 Unspecified NONE
2642008-01-10 10:54PSTYesJRY/CRBUSGS-7343.83 Unspecified NONE
2632008-01-10 10:49PSTYesJRY/CRBUSGS-15503.84 Unspecified NONE
2622008-01-10 10:43PSTYesJRY/CRBUSGS-17903.81 Unspecified NONE
2612008-01-10 10:37PSTYesJRY/CRBUSGS-16103.73 Unspecified NONE
2602008-01-10 10:32PSTYesJRY/CRBUSGS-9033.67 Unspecified NONE
2592008-01-10 10:27PSTYesJRY/CRBUSGS1.003.64 Unspecified NONE
2582008-01-10 10:22PSTYesJRY/CRBUSGS3593.64 Unspecified NONE
2572008-01-10 10:17PSTYesJRY/CRBUSGS-1433.63 Unspecified NONE
2562008-01-10 10:12PSTYesJRY/CRBUSGS-4313.62 Unspecified NONE
2552008-01-10 10:08PSTYesJRY/CRBUSGS-10103.62 Unspecified NONE
2542008-01-10 10:01PSTYesJRY/CRBUSGS-10903.60 Unspecified NONE
2532008-01-10 09:56PSTYesJRY/CRBUSGS-10203.53 Unspecified NONE
2522008-01-10 09:52PSTYesJRY/CRBUSGS-8623.47 Unspecified NONE
2512008-01-10 09:46PSTYesJRY/CRBUSGS17.03.38 Unspecified NONE
2502008-01-10 09:42PSTYesJRY/CRBUSGS1473.39 Unspecified NONE
2492008-01-10 09:37PSTYesJRY/CRBUSGS-10503.42 Unspecified NONE
2482008-01-10 09:32PSTYesJRY/CRBUSGS-11303.46 Unspecified NONE
2472008-01-10 09:15PSTYesJRY/CRBUSGS4453.20 Unspecified NONE
2462008-01-10 09:10PSTYesJRY/CRBUSGS5173.19 Unspecified NONE
2452008-01-10 09:05PSTYesJRY/CRBUSGS5753.17 Unspecified NONE
2442008-01-10 09:01PSTYesJRY/CRBUSGS5063.16 Unspecified NONE
2432008-01-10 08:56PSTYesJRY/CRBUSGS4853.14 Unspecified NONE
2422008-01-10 08:51PSTYesJRY/CRBUSGS4033.13 Unspecified NONE
2412008-01-10 08:46PSTYesJRY/CRBUSGS4823.11 Unspecified NONE
2402008-01-10 08:42PSTYesJRY/CRBUSGS4543.10 Unspecified NONE
2392008-01-10 08:36PSTYesJRY/CRBUSGS4973.07 Unspecified NONE
2382008-01-10 08:32PSTYesJRY/CRBUSGS5573.05 Unspecified NONE
2372008-01-10 08:27PSTYesJRY/CRBUSGS6043.03 Unspecified NONE
2362008-01-10 08:22PSTYesJRY/CRBUSGS6373.02 Unspecified NONE
2352008-01-10 08:18PSTYesJRY/CRBUSGS7633.00 Unspecified NONE
2342007-02-06 15:01PSTYes???USGS43102.78 Unspecified NONE
2332007-02-06 14:57PSTYes???USGS46002.80 Unspecified NONE
2322007-02-06 14:54PSTYes???USGS44602.82 Unspecified NONE
2312007-02-06 14:50PSTYes???USGS44302.84 Unspecified NONE
2302007-02-06 14:44PSTYes???USGS45302.87 Unspecified NONE
2292007-02-06 14:40PSTYes???USGS47302.89 Unspecified NONE
2282007-02-06 14:37PSTYes???USGS48002.92 Unspecified NONE
2272007-02-06 14:32PSTYes???USGS46802.95 Unspecified NONE
2262007-02-06 14:28PSTYes???USGS46602.97 Unspecified NONE
2252007-02-06 14:24PSTYes???USGS47403.00 Unspecified NONE
2242007-02-06 14:20PSTYes???USGS47203.02 Unspecified NONE
2232007-02-06 14:16PSTYes???USGS48603.05 Unspecified NONE
2222007-02-06 14:12PSTYes???USGS47703.07 Unspecified NONE
2212007-02-06 14:09PSTYes???USGS46503.10 Unspecified NONE
2202007-02-06 14:04PSTYes???USGS47003.13 Unspecified NONE
2192007-02-06 14:00PSTYes???USGS50003.16 Unspecified NONE
2182007-02-06 13:56PSTYes???USGS49903.19 Unspecified NONE
2172007-02-06 13:52PSTYes???USGS50503.22 Unspecified NONE
2162007-02-06 13:48PSTYes???USGS45503.25 Unspecified NONE
2152007-02-06 13:45PSTYes???USGS45303.27 Unspecified NONE
2142007-02-06 13:41PSTYes???USGS44503.30 Unspecified NONE
2132007-02-06 13:38PSTYes???USGS45403.32 Unspecified NONE
2122007-02-06 13:32PSTYes???USGS44403.37 Unspecified NONE
2112007-02-06 13:29PSTYes???USGS45103.39 Unspecified NONE
2102007-02-06 13:26PSTYes???USGS44103.42 Unspecified NONE
2092007-02-06 13:22PSTYes???USGS44403.44 Unspecified NONE
2082007-02-06 13:19PSTYes???USGS41303.46 Unspecified NONE
2072007-02-06 13:16PSTYes???USGS41803.48 Unspecified NONE
2062007-02-06 13:13PSTYes???USGS40603.50 Unspecified NONE
2052007-02-06 13:10PSTYes???USGS39903.52 Unspecified NONE
2042006-11-07 16:19PSTYesBJSUSGS-3730 Unspecified NONE
2032006-11-07 16:15PSTYesBJSUSGS-3800 Unspecified NONE
2022006-11-07 16:10PSTYesBJSUSGS-3920 Unspecified NONE
2012006-11-07 16:06PSTYesBJSUSGS-3740 Unspecified NONE
2002006-11-07 16:02PSTYesBJSUSGS-3510 Unspecified NONE
1992006-11-07 15:58PSTYesBJSUSGS-3400 Unspecified NONE
1982006-11-07 15:53PSTYesBJSUSGS-2180 Unspecified NONE
1972006-11-07 15:49PSTYesBJSUSGS-1260 Unspecified NONE
1962006-11-07 15:46PSTYesBJSUSGS-1020 Unspecified NONE
1952006-11-07 15:42PSTYesBJSUSGS-935 Unspecified NONE
1942006-11-07 15:39PSTYesBJSUSGS-869 Unspecified NONE
1932006-11-07 15:35PSTYesBJSUSGS-817 Unspecified NONE
1922006-11-07 15:32PSTYesBJSUSGS-744 Unspecified NONE
1912006-11-07 15:28PSTYesBJSUSGS-646 Unspecified NONE
1902006-11-07 15:26PSTYesBJSUSGS-690 Unspecified NONE
1892006-11-07 15:22PSTYesBJSUSGS-589 Unspecified NONE
1882006-11-07 15:13PSTYesBJSUSGS-494 Unspecified NONE
1872006-11-07 15:10PSTYesBJSUSGS-419 Unspecified NONE
1862006-11-07 15:05PSTYesBJSUSGS-447 Unspecified NONE
1852006-11-07 15:02PSTYesBJSUSGS-415 Unspecified NONE
1842006-11-07 14:59PSTYesBJSUSGS-398 Unspecified NONE
1832006-11-07 14:55PSTYesBJSUSGS-315 Unspecified NONE
1822006-11-07 14:49PSTYesBJSUSGS-360 Unspecified NONE
1812006-11-07 14:46PSTYesBJSUSGS-349 Unspecified NONE
1802006-11-07 14:41PSTYesBJSUSGS-424 Unspecified NONE
1792006-11-07 14:38PSTYesBJSUSGS-426 Unspecified NONE
1782006-11-07 14:28PSTYesBJSUSGS-674 Unspecified NONE
1772006-11-07 14:23PSTYesBJSUSGS-792 Unspecified NONE
1762006-11-07 14:20PSTYesBJSUSGS-797 Unspecified NONE
1752006-11-07 14:16PSTYesBJSUSGS-779 Unspecified NONE
1742006-11-07 14:13PSTYesBJSUSGS-861 Unspecified NONE
1732006-11-07 14:10PSTYesBJSUSGS-753 Unspecified NONE
1722006-11-07 14:07PSTYesBJSUSGS-725 Unspecified NONE
1712006-11-07 14:03PSTYesBJSUSGS-607 Unspecified NONE
1702006-11-07 13:58PSTYesBJSUSGS-667 Unspecified NONE
1692006-11-07 13:55PSTYesBJSUSGS-662 Unspecified NONE
1682006-11-07 13:51PSTYesBJSUSGS-606 Unspecified NONE
1672006-11-07 13:46PSTYesBJSUSGS-423 Unspecified NONE
1662006-11-07 13:42PSTYesBJSUSGS-433 Unspecified NONE
1652006-11-07 13:38PSTYesBJSUSGS-341 Unspecified NONE
1642006-11-07 13:32PSTYesBJSUSGS-148 Unspecified NONE
1632006-11-07 13:28PSTYesBJSUSGS15.3 Unspecified NONE
1622006-11-07 13:24PSTYesBJSUSGS93.6 Unspecified NONE
1612006-11-07 13:20PSTYesBJSUSGS255 Unspecified NONE
1602006-11-07 13:17PSTYesBJSUSGS383 Unspecified NONE
1592006-11-07 13:13PSTYesBJSUSGS570 Unspecified NONE
1582006-11-07 13:08PSTYesBJSUSGS666 Unspecified NONE
1572006-11-07 13:04PSTYesBJSUSGS742 Unspecified NONE
1562006-11-07 13:01PSTYesBJSUSGS840 Unspecified NONE
1552006-11-07 12:58PSTYesBJSUSGS955 Unspecified NONE
1542006-11-07 12:22PSTYesBJSUSGS1620 Unspecified NONE
1532006-11-07 12:17PSTYesBJSUSGS1720 Unspecified NONE
1522006-11-07 12:13PSTYesBJSUSGS1740 Unspecified NONE
1512006-11-07 12:09PSTYesBJSUSGS1790 Unspecified NONE
1502006-11-07 12:06PSTYesBJSUSGS1800 Unspecified NONE
1492006-11-07 12:02PSTYesBJSUSGS1900 Unspecified NONE
1482006-11-07 11:27PSTYesBJSUSGS1500 Unspecified NONE
1472006-11-07 11:23PSTYesBJSUSGS1440 Unspecified NONE
1462006-11-07 11:19PSTYesBJSUSGS1420 Unspecified NONE
1452006-11-07 11:14PSTYesBJSUSGS1410 Unspecified NONE
1442006-11-07 11:10PSTYesBJSUSGS1420 Unspecified NONE
1432006-11-07 11:06PSTYesBJSUSGS1320 Unspecified NONE
1422006-11-07 11:02PSTYesBJSUSGS1340 Unspecified NONE
1412006-11-07 10:57PSTYesBJSUSGS1340 Unspecified NONE
1402006-11-07 10:53PSTYesBJSUSGS1320 Unspecified NONE
1392006-11-07 10:48PSTYesBJSUSGS1340 Unspecified NONE
1382006-11-07 10:45PSTYesBJSUSGS1510 Unspecified NONE
1372006-11-07 10:41PSTYesBJSUSGS1510 Unspecified NONE
1362006-11-07 10:37PSTYesBJSUSGS1580 Unspecified NONE
1352006-11-07 10:33PSTYesBJSUSGS1660 Unspecified NONE
1342006-11-07 10:17PSTYesBJSUSGS1490 Unspecified NONE
1332006-11-07 10:12PSTYesBJSUSGS1410 Unspecified NONE
1322006-11-07 10:08PSTYesBJSUSGS1280 Unspecified NONE
1312006-11-07 10:03PSTYesBJSUSGS1230 Unspecified NONE
1302006-11-07 09:59PSTYesBJSUSGS1070 Unspecified NONE
1292006-11-07 09:54PSTYesBJSUSGS960 Unspecified NONE
1282006-11-07 09:49PSTYesBJSUSGS876 Unspecified NONE
1272006-11-07 09:44PSTYesBJSUSGS645 Unspecified NONE
1262006-11-07 09:40PSTYesBJSUSGS511 Unspecified NONE
1252006-11-07 09:33PSTYesBJSUSGS347 Unspecified NONE
1242006-11-07 09:28PSTYesBJSUSGS207 Unspecified NONE
1232006-11-07 09:24PSTYesBJSUSGS249 Unspecified NONE
1222006-11-07 09:19PSTYesBJSUSGS225 Unspecified NONE
1212006-11-07 09:15PSTYesBJSUSGS181 Unspecified NONE
1202006-11-07 09:10PSTYesBJSUSGS38.9 Unspecified NONE
1192006-11-07 09:05PSTYesBJSUSGS7.75 Unspecified NONE
1182006-11-07 08:59PSTYesBJSUSGS67.3 Unspecified NONE
1172006-11-07 08:55PSTYesBJSUSGS17.9 Unspecified NONE
1162006-11-07 08:50PSTYesBJSUSGS-24.8 Unspecified NONE
1152006-11-07 08:45PSTYesBJSUSGS-119 Unspecified NONE
1142006-11-07 08:41PSTYesBJSUSGS-94.3 Unspecified NONE
1132006-11-07 08:32PSTYesBJSUSGS-113 Unspecified NONE
1122006-11-07 08:28PSTYesBJSUSGS-160 Unspecified NONE
1112006-11-07 08:23PSTYesBJSUSGS-211 Unspecified NONE
1102006-11-07 08:18PSTYesBJSUSGS-247 Unspecified NONE
1092006-07-11 14:05PSTYes???USGS54302.59 Unspecified NONE
1082006-07-11 14:02PSTYes???USGS54302.60 Unspecified NONE
1072006-07-11 13:59PSTYes???USGS52402.62 Unspecified NONE
1062006-07-11 13:56PSTYes???USGS55102.64 Unspecified NONE
1052006-07-11 13:53PSTYes???USGS56402.65 Unspecified NONE
1042006-07-11 13:50PSTYes???USGS55302.67 Unspecified NONE
1032006-07-11 13:47PSTYes???USGS55402.69 Unspecified NONE
1022006-07-11 13:44PSTYes???USGS57302.71 Unspecified NONE
1012006-07-11 13:41PSTYes???USGS58802.73 Unspecified NONE
1002006-07-11 13:37PSTYes???USGS55702.75 Unspecified NONE
992006-07-11 13:34PSTYes???USGS54402.78 Unspecified NONE
982006-07-11 13:31PSTYes???USGS56902.80 Unspecified NONE
972006-07-11 13:28PSTYes???USGS55202.82 Unspecified NONE
962006-07-11 13:25PSTYes???USGS56902.84 Unspecified NONE
952006-02-08 18:27PSTYes???USGS70004.91 Unspecified NONE
942006-02-08 18:23PSTYes???USGS70004.95 Unspecified NONE
932006-02-08 18:17PSTYes???USGS72404.99 Unspecified NONE
922006-02-08 18:11PSTYes???USGS68005.04 Unspecified NONE
912006-02-08 18:05PSTYes???USGS68505.09 Unspecified NONE
902006-02-08 18:00PSTYes???USGS69305.13 Unspecified NONE
892006-02-08 17:54PSTYes???USGS67805.18 Unspecified NONE
882006-02-08 17:49PSTYes???USGS67105.21 Unspecified NONE
872006-02-08 17:40PSTYes???USGS68105.29 Unspecified NONE
862006-02-08 17:35PSTYes???USGS69505.33 Unspecified NONE
852006-02-08 17:27PSTYes???USGS72305.39 Unspecified NONE
842006-02-08 17:22PSTYes???USGS69005.43 Unspecified NONE
832006-02-08 17:17PSTYes???USGS70805.47 Unspecified NONE
822006-02-08 17:12PSTYes???USGS70605.51 Unspecified NONE
812006-02-08 17:08PSTYes???USGS65205.54 Unspecified NONE
802006-02-08 17:02PSTYes???USGS65205.59 Unspecified NONE
792006-02-08 16:57PSTYes???USGS64005.63 Unspecified NONE
782006-02-08 16:53PSTYes???USGS63505.67 Unspecified NONE
772006-02-08 16:48PSTYes???USGS60705.70 Unspecified NONE
762006-02-08 16:44PSTYes???USGS60605.74 Unspecified NONE
752006-02-08 16:39PSTYes???USGS58805.78 Unspecified NONE
742006-02-08 16:34PSTYes???USGS59605.82 Unspecified NONE
732006-02-08 16:28PSTYes???USGS55805.86 Unspecified NONE
722006-02-08 16:24PSTYes???USGS54505.90 Unspecified NONE
712006-02-08 16:19PSTYes???USGS49705.95 Unspecified NONE
702006-02-08 16:13PSTYes???USGS47205.99 Unspecified NONE
692006-02-08 16:08PSTYes???USGS44506.02 Unspecified NONE
682006-02-08 16:03PSTYes???USGS39706.06 Unspecified NONE
672006-02-08 15:57PSTYes???USGS35306.10 Unspecified NONE
662006-02-08 15:52PSTYes???USGS32206.13 Unspecified NONE
652006-02-08 15:11PSTYes???USGS5046.23 Unspecified NONE
642006-02-08 15:06PSTYes???USGS2236.22 Unspecified NONE
632006-02-08 15:01PSTYes???USGS-34.06.21 Unspecified NONE
622006-02-08 14:56PSTYes???USGS-1556.20 Unspecified NONE
612006-02-08 14:50PSTYes???USGS-4036.19 Unspecified NONE
602006-02-08 14:44PSTYes???USGS-5656.16 Unspecified NONE
592006-02-08 14:39PSTYes???USGS-7206.14 Unspecified NONE
582006-02-08 14:34PSTYes???USGS-7786.12 Unspecified NONE
572006-02-08 14:29PSTYes???USGS-10406.10 Unspecified NONE
562006-02-08 14:24PSTYes???USGS-9226.07 Unspecified NONE
552006-02-08 14:19PSTYes???USGS-10106.05 Unspecified NONE
542006-02-08 14:14PSTYes???USGS-12406.02 Unspecified NONE
532006-02-08 14:08PSTYes???USGS-13305.99 Unspecified NONE
522006-02-08 14:04PSTYes???USGS-12705.96 Unspecified NONE
512006-02-08 14:00PSTYes???USGS-12505.94 Unspecified NONE
502006-02-08 13:33PSTYes???USGS-15405.77 Unspecified NONE
492006-02-08 13:28PSTYes???USGS-12205.74 Unspecified NONE
482006-02-08 13:23PSTYes???USGS-13705.71 Unspecified NONE
472006-02-08 13:18PSTYes???USGS-13305.67 Unspecified NONE
462006-02-08 13:13PSTYes???USGS-14405.64 Unspecified NONE
452006-02-08 13:09PSTYes???USGS-14205.61 Unspecified NONE
442006-02-08 13:03PSTYes???USGS-14705.57 Unspecified NONE
432006-02-08 12:57PSTYes???USGS-13805.53 Unspecified NONE
422006-02-08 12:52PSTYes???USGS-14905.49 Unspecified NONE
412006-02-08 12:47PSTYes???USGS-14405.45 Unspecified NONE
402006-02-08 12:41PSTYes???USGS-13805.42 Unspecified NONE
392006-02-08 12:36PSTYes???USGS-13205.38 Unspecified NONE
382006-02-08 12:31PSTYes???USGS-14105.35 Unspecified NONE
372006-02-08 12:26PSTYes???USGS-12205.31 Unspecified NONE
362006-02-08 12:17PSTYes???USGS-11705.25 Unspecified NONE
352006-02-08 12:12PSTYes???USGS-11605.22 Unspecified NONE
342006-02-08 12:07PSTYes???USGS-11705.18 Unspecified NONE
332006-02-08 12:03PSTYes???USGS-11605.15 Unspecified NONE
322006-02-08 11:58PSTYes???USGS-11105.12 Unspecified NONE
312006-02-08 11:54PSTYes???USGS-11105.09 Unspecified NONE
302006-02-08 11:49PSTYes???USGS-8915.06 Unspecified NONE
292006-02-08 11:44PSTYes???USGS-9005.02 Unspecified NONE
282006-02-08 11:40PSTYes???USGS-7854.99 Unspecified NONE
272006-02-08 11:36PSTYes???USGS-7444.97 Unspecified NONE
262006-02-08 11:31PSTYes???USGS-7424.93 Unspecified NONE
252006-02-08 11:26PSTYes???USGS-6494.90 Unspecified NONE
242006-02-08 11:21PSTYes???USGS-5794.87 Unspecified NONE
232006-02-08 11:16PSTYes???USGS-4104.84 Unspecified NONE
222006-02-08 11:12PSTYes???USGS-3094.81 Unspecified NONE
212006-02-08 11:07PSTYes???USGS-2084.78 Unspecified NONE
202006-02-08 11:03PSTYes???USGS-1434.75 Unspecified NONE
192006-02-08 10:23PSTYes???USGS7544.51 Unspecified NONE
182006-02-08 10:19PSTYes???USGS8164.49 Unspecified NONE
172006-02-08 10:15PSTYes???USGS9614.47 Unspecified NONE
162006-02-08 10:10PSTYes???USGS10804.44 Unspecified NONE
152006-02-08 10:07PSTYes???USGS12104.41 Unspecified NONE
142006-02-08 10:03PSTYes???USGS12304.39 Unspecified NONE
132006-02-08 09:58PSTYes???USGS13004.36 Unspecified NONE
122006-02-08 09:54PSTYes???USGS13604.34 Unspecified NONE
112006-02-08 09:50PSTYes???USGS14704.32 Unspecified NONE
102006-02-08 09:44PSTYes???USGS15004.28 Unspecified NONE
92006-02-08 09:40PSTYes???USGS16704.27 Unspecified NONE
82006-02-08 09:36PSTYes???USGS16004.26 Unspecified NONE
72006-02-08 09:30PSTYes???USGS16404.25 Unspecified NONE
62006-01-13 16:02PSTYes???USGS17806.87 Unspecified NONE
52006-01-13 15:58PSTYes???USGS17606.83 Unspecified NONE
42006-01-13 15:53PSTYes???USGS17406.79 Unspecified NONE
32006-01-13 15:48PSTYes???USGS16406.75 Unspecified NONE
22006-01-13 15:43PSTYes???USGS16306.71 Unspecified NONE
12006-01-13 15:37PSTYes???USGS17206.65 Unspecified NONE